Weather History for Ukiah, CA

Change the Weather History Date:

Sunday, August 4, 2013

  Actual Average Record
Temperature  
Mean Temperature 71 °F 74 °F  
Max Temperature 91 °F 94 °F 108 °F (1998)
Min Temperature 51 °F 55 °F 42 °F (1919)
Degree Days  
Heating Degree Days 0 0  
Month to date heating degree days 0  
Since 1 June heating degree days 33  
Since 1 July heating degree days 1  
Cooling Degree Days 6 9  
Month to date cooling degree days 36  
Year to date cooling degree days 479  
Since 1 June cooling degree days 427  
Growing Degree Days 22 (Base 50)    
Moisture  
Dew Point 50 °F    
Average Humidity 56    
Maximum Humidity 89    
Minimum Humidity 23    
Precipitation  
Precipitation 0.00 in 0.00 in 0.00 in (2014)
Month to date precipitation 0.00 0.00  
Year to date precipitation 5.61 23.42  
Since 1 July precipitation 0.03 0.04  
Snow  
Snow 0.00 in - - ()
Month to date snowfall 0.0  
Since 1 June snowfall 0.0  
Since 1 July snowfall 0.0  
Snow Depth -    
Sea Level Pressure  
Sea Level Pressure 29.92 in    
Wind  
Wind Speed 6 mph (SSE)    
Max Wind Speed 16 mph    
Max Gust Speed 24 mph    
Visibility 10 miles    
Events      
T = Trace of Precipitation, MM = Missing Value Source: NWS Daily Summary

Daily Weather History Graph

Daily Weather History Graph

Search for Another Location

Airport:

Trip Planner

Search our weather history database for the weather conditions in past years. The results will help you decide how hot, cold, wet, or windy it might be!

Date:

Astronomy

Aug. 04, 2013 Rise Set
Actual Time 6:16 AM PDT 8:20 PM PDT
Civil Twilight 5:46 AM PDT 8:50 PM PDT
Nautical Twilight 5:10 AM PDT 9:26 PM PDT
Astronomical Twilight 4:31 AM PDT 10:05 PM PDT
Moon 4:22 AM PDT (8/4) 6:47 PM PDT (8/4)
Length of Visible Light 15h 03m
Length of Day
14h 04m
Waning Crescent, 4% of the Moon is Illuminated
Aug 4
Waning Crescent
Aug 6
New
Aug 14
First Quarter
Aug 20
Full
Aug 28
Last Quarter

Hourly Weather History & Observations

Time (PDT) Temp. Heat Index Dew Point Humidity Pressure Visibility Wind Dir Wind Speed Gust Speed Precip Events Conditions
12:56 AM 63.0 °F - 48.9 °F 60% 29.91 in 9.0 mi Calm Calm - N/A   Clear
1:56 AM 61.0 °F - 48.9 °F 64% 29.91 in 10.0 mi SSE 3.5 mph - N/A   Clear
2:56 AM 57.9 °F - 50.0 °F 75% 29.91 in 10.0 mi SSE 5.8 mph - N/A   Clear
3:56 AM 55.0 °F - 48.9 °F 80% 29.92 in 10.0 mi South 4.6 mph - N/A   Clear
4:56 AM 54.0 °F - 48.9 °F 83% 29.93 in 10.0 mi SSE 4.6 mph - N/A   Clear
5:56 AM 52.0 °F - 48.9 °F 89% 29.94 in 10.0 mi South 5.8 mph - N/A   Clear
6:56 AM 52.0 °F - 48.9 °F 89% 29.96 in 10.0 mi South 3.5 mph - N/A   Clear
7:20 AM 53.6 °F - 50.0 °F 88% 29.98 in 10.0 mi South 3.5 mph - N/A   Partly Cloudy
7:56 AM 54.0 °F - 50.0 °F 86% 29.97 in 10.0 mi SSE 3.5 mph - N/A   Clear
8:56 AM 59.0 °F - 50.0 °F 72% 29.96 in 10.0 mi SE 4.6 mph - N/A   Clear
9:56 AM 64.0 °F - 51.1 °F 63% 29.96 in 10.0 mi Variable 3.5 mph - N/A   Clear
10:56 AM 71.1 °F - 52.0 °F 51% 29.94 in 10.0 mi SE 4.6 mph - N/A   Clear
11:56 AM 77.0 °F - 51.1 °F 40% 29.92 in 10.0 mi Variable 3.5 mph - N/A   Clear
12:56 PM 84.0 °F - 52.0 °F 33% 29.90 in 10.0 mi ESE 8.1 mph - N/A   Clear
1:56 PM 89.1 °F - 51.1 °F 27% 29.88 in 10.0 mi SSE 12.7 mph - N/A   Clear
2:56 PM 90.0 °F - 51.1 °F 26% 29.87 in 10.0 mi SE 16.1 mph 21.9 mph N/A   Clear
3:56 PM 91.0 °F - 48.0 °F 23% 29.86 in 10.0 mi SSE 13.8 mph 21.9 mph N/A   Clear
4:56 PM 89.1 °F - 52.0 °F 28% 29.86 in 10.0 mi SSE 11.5 mph 20.7 mph N/A   Clear
5:56 PM 87.1 °F 85.1 °F 54.0 °F 32% 29.86 in 10.0 mi SSE 8.1 mph 17.3 mph N/A   Clear
6:56 PM 86.0 °F - 44.1 °F 23% 29.88 in 10.0 mi South 5.8 mph - N/A   Clear
7:56 PM 78.1 °F - 53.1 °F 42% 29.89 in 10.0 mi SSE 9.2 mph - N/A   Clear
8:56 PM 73.0 °F - 52.0 °F 48% 29.92 in 10.0 mi SSE 4.6 mph - N/A   Clear
9:56 PM 70.0 °F - 51.1 °F 51% 29.94 in 10.0 mi SSE 5.8 mph - N/A   Clear
10:56 PM 64.0 °F - 51.1 °F 63% 29.95 in 10.0 mi South 8.1 mph - N/A   Clear
11:56 PM 61.0 °F - 51.1 °F 70% 29.95 in 10.0 mi SSE 6.9 mph - N/A   Clear